Location: Cape Cod Imaging Station
(41.7417°N, 70.1583°W)
Time: 18:24:13
(UTC-04:00)

Hubble Space Telescope - Visible Passes

Search period start: 20 April 2018 00:00
Search period end: 30 April 2018 00:00
Orbit: 537 x 541 km, 28.5° (Epoch: 20 April)

Date Brightness Start Highest point End Pass type
(mag) Time Alt. Az. Time Alt. Az. Time Alt. Az.
27 Apr 3.1 21:10:46 10° SSW 21:11:13 11° S 21:11:13 11° S visible
28 Apr 2.9 21:00:08 10° SSW 21:01:43 12° S 21:01:43 12° S visible
29 Apr 2.8 20:49:35 10° SSW 20:51:28 13° S 20:52:07 12° SSE visible
